Location: Noyers
(47.2770°N, 1.4032°E)
Time: 22:18:12
(UTC+00:00)

Cosmos 909 Rocket - Pass Details

Date: 15 May 2026
Orbit: 989 x 2090 km, 65.9° (Epoch: 11 June)

Event Time Altitude Azimuth Distance (km) Brightness Sun altitude
Rises 20:11:15 0° 206° (SSW) 3,798 7.0 -7.4°
Reaches altitude 10° 20:13:53 10° 204° (SSW) 2,790 6.3 -7.8°
Maximum altitude 20:20:10 73° 121° (ESE) 1,037 4.0 -8.6°
Drops below altitude 10° 20:26:35 10° 39° (NE) 2,851 6.5 -9.4°
Sets 20:29:18 0° 37° (NE) 3,887 7.2 -9.8°
